軌道要素
Epoch 2016 May 12.0 TT = JDT 2457520.5
T 2016 May 26.83098 TT MPCW
q 2.5208772 (2000.0) P Q
n 0.11051771 Peri. 312.19656 +0.95164240 +0.30541456
a 4.3004589 Node 30.06469 -0.25874905 +0.85501490
e 0.4138120 Incl. 3.79367 -0.16560697 +0.41913180
P 8.92
From 174 observations 2007 Sept. 10-2016 Dec. 7, mean residual 0".7.
|